Wind_Speed
22 24 25 21 19 19 20 21 25 28 30 33 35 35 34 35 36 35 35 34 33 32 32 31 28 25 24 24 21 18 17 18 19 21 23 24 24 24 24 22 18 16 13 11 10 9 7 5 4 4 4 4 5 6 7 7 8 8 9 10 11 12 13 14 14 15 14 14 13 12 11 10 8 7 6 5 5 3 2 0 1 2 3 3 3
24 26 24 21 23 21 19 22 26 29 30 31 32 31 31 31 30 30 30 29 28 30 29 26 22 22 22 20 16 15 16 18 20 23 25 26 25 26 25 22 19 16 14 11 10 10 7 5 4 4 4 4 5 6 6 6 6 7 8 8 9 10 10 11 12 12 13 13 13 12 11 11 10 8 6 5 6 5 4 3 1 1 2 2 3
27 27 25 24 26 24 22 24 26 29 30 29 28 27 26 26 26 26 26 26 28 27 24 20 19 20 19 15 13 14 16 18 21 24 27 27 27 28 26 23 21 18 15 13 11 10 7 5 4 4 5 5 5 5 5 5 4 5 6 6 6 7 7 8 9 9 11 11 11 10 10 10 10 9 7 6 6 6 6 6 4 3 2 3 4
29 28 27 26 27 27 26 27 27 28 28 26 24 23 23 23 23 23 24 25 25 22 18 17 17 17 15 12 13 14 16 19 22 26 28 28 29 28 26 24 22 18 16 14 12 10 7 4 3 4 5 5 5 3 3 3 3 3 3 3 4 4 4 5 6 7 9 10 10 10 9 8 9 9 9 7 6 7 7 8 7 5 4 4 4
29 28 27 27 27 27 26 26 26 25 23 21 20 20 21 21 21 22 23 22 19 16 15 15 16 15 12 11 13 15 18 21 23 26 28 29 29 28 27 25 22 18 15 12 10 9 8 4 2 2 2 3 3 2 2 2 1 1 1 1 1 1 2 3 4 4 6 9 10 9 9 8 8 8 8 8 7 7 8 9 9 8 6 4 4
29 28 26 26 26 25 24 23 22 21 20 18 18 20 21 20 20 21 19 16 13 12 13 14 14 12 10 12 14 17 20 22 24 27 29 28 27 29 29 27 24 22 18 14 12 10 10 8 5 3 1 1 2 2 1 1 1 1 1 1 2 2 3 3 2 3 5 8 9 9 10 8 6 6 6 7 8 7 7 8 10 10 8 6 5
29 27 25 25 25 24 22 21 20 19 19 19 19 21 20 19 19 17 14 11 10 11 11 12 11 9 10 13 16 18 21 24 26 28 28 26 26 29 30 29 27 27 26 22 20 18 17 15 14 10 6 3 1 3 3 3 2 1 1 2 3 4 5 5 4 3 2 5 9 6 6 4 1 3 4 5 7 7 7 8 10 11 10 8 7
28 26 25 24 23 22 20 19 19 19 19 20 20 20 18 17 15 12 9 8 9 9 10 10 8 8 10 13 15 18 22 25 27 28 27 25 26 28 30 31 31 31 30 29 28 27 26 24 22 19 15 12 9 6 4 3 3 2 1 2 4 5 6 6 6 5 3 1 4 3 7 5 2 1 2 5 6 7 7 8 9 10 11 9 8
27 25 24 23 22 20 19 19 18 18 19 19 18 17 16 14 10 8 7 7 7 8 9 8 7 7 9 12 15 18 22 26 27 26 25 24 25 27 30 32 33 32 32 31 31 30 30 29 28 26 24 22 19 16 13 11 8 5 3 4 6 7 7 6 6 5 4 3 4 6 7 5 3 3 1 5 6 6 7 7 8 10 11 10 9
25 24 23 22 21 19 18 18 18 18 18 18 16 15 13 9 7 6 6 6 7 8 9 7 6 7 10 12 15 19 24 26 26 24 24 23 24 27 29 31 32 33 32 32 32 31 31 31 30 29 28 26 24 22 19 17 14 11 8 7 7 8 8 8 8 5 4 4 6 7 6 7 4 1 1 2 4 5 6 7 8 9 10 10 10
24 23 22 21 20 18 18 18 17 18 17 16 14 11 9 6 5 5 6 6 7 9 8 6 6 8 11 13 16 20 25 27 24 22 22 22 23 25 28 30 31 31 31 32 31 31 30 30 30 29 28 26 25 23 22 20 19 18 16 13 10 8 7 7 7 7 6 5 8 9 8 9 5 2 2 0 2 4 6 7 8 8 9 10 10
23 21 21 20 19 18 18 18 18 17 15 13 10 7 6 4 5 7 7 7 9 8 7 5 7 10 12 15 18 22 26 26 23 20 20 21 22 24 27 29 29 29 30 30 30 30 29 29 28 28 27 25 24 23 22 22 22 21 21 19 16 12 8 4 3 5 6 7 8 9 9 9 6 3 2 0 1 3 4 5 7 7 8 9 10
21 20 20 20 19 18 18 17 17 15 12 9 6 5 4 4 7 8 8 9 9 7 6 6 9 12 13 16 19 23 26 25 22 19 18 19 20 22 25 28 28 27 27 28 29 29 29 28 28 27 26 25 24 23 23 22 22 23 23 23 21 18 12 5 1 3 5 7 8 8 9 8 6 5 3 1 1 1 3 4 5 6 7 8 9
20 20 20 20 19 18 17 17 15 12 9 6 4 3 3 7 8 8 9 9 8 7 7 9 11 13 14 17 20 24 25 23 21 18 16 16 18 20 24 26 26 26 26 26 27 28 28 28 28 27 27 26 26 25 25 24 24 24 25 26 26 23 17 8 1 4 5 7 8 8 7 7 6 6 4 3 2 1 2 3 4 6 6 7 8
19 19 19 19 19 17 16 15 12 8 5 3 3 3 6 8 8 9 9 9 8 8 9 11 13 14 15 18 21 23 23 22 20 18 15 14 15 18 22 24 24 24 24 25 26 27 27 27 27 27 27 27 28 28 27 27 27 27 27 29 29 28 24 15 6 5 7 8 8 8 8 7 7 5 3 3 2 1 1 2 3 5 5 6 7
18 19 19 19 18 16 14 12 8 4 2 2 2 5 8 8 9 9 10 10 9 9 11 12 13 14 16 19 21 22 22 22 20 18 17 15 15 17 21 23 23 23 23 24 24 25 25 25 25 26 26 27 28 28 28 29 29 30 30 30 32 32 31 26 16 8 6 7 8 8 7 6 7 7 5 3 2 2 2 2 2 3 4 5 6
18 18 19 19 16 13 11 8 4 2 1 1 4 8 9 9 9 11 11 11 10 11 11 12 13 15 17 18 20 21 21 21 20 19 17 16 17 19 21 22 23 23 23 23 24 24 24 24 24 25 25 26 27 27 28 29 30 31 32 32 34 35 36 34 25 15 10 8 8 7 5 4 4 6 5 4 3 2 2 3 3 2 3 3 4
18 18 19 18 14 10 7 3 2 2 1 3 7 9 9 9 11 12 13 12 11 11 12 12 13 15 16 18 19 19 20 21 20 19 18 18 19 20 21 23 23 24 24 24 24 24 24 24 24 24 24 25 26 26 27 28 29 31 32 33 34 36 36 36 31 22 15 10 8 7 5 4 3 3 2 2 2 2 2 3 3 1 2 2 3
17 18 18 15 10 6 3 1 2 1 2 6 9 10 9 11 12 13 14 13 12 12 11 11 12 13 14 16 17 17 19 20 20 19 19 19 20 21 22 23 24 24 24 24 24 25 25 24 24 23 23 24 24 25 26 27 28 30 31 33 34 35 35 34 32 28 22 15 10 7 5 4 4 4 3 2 1 1 2 2 2 1 1 1 2
16 17 16 11 6 3 1 2 1 2 5 9 10 10 10 12 13 14 14 14 13 12 10 10 11 12 13 14 14 15 17 19 19 19 19 19 20 21 22 24 24 23 24 24 24 24 24 24 23 23 22 22 23 23 24 25 27 28 29 31 32 32 32 31 31 30 28 23 17 10 5 3 2 3 3 3 2 2 2 3 2 2 2 2 1
16 16 12 6 3 1 1 2 2 4 8 10 10 10 12 14 14 14 15 14 13 11 10 10 9 10 11 12 12 14 17 17 18 18 18 19 20 22 23 23 23 23 23 24 24 24 24 24 24 23 23 23 23 23 24 24 25 26 27 28 29 29 29 29 30 29 28 26 22 17 11 6 4 2 2 2 2 3 3 3 3 4 3 3 2
15 12 7 3 2 1 1 2 4 7 10 10 10 12 13 14 14 15 15 14 13 11 10 9 8 8 9 10 11 13 15 16 17 17 18 19 20 22 23 23 23 23 23 24 25 25 24 24 24 24 24 24 23 23 23 23 23 24 24 25 26 26 27 27 27 28 27 25 22 20 18 15 11 8 6 5 4 4 5 5 4 5 5 5 3
12 8 4 3 1 1 1 3 7 10 10 10 12 14 14 15 15 16 15 14 13 11 9 7 6 8 9 9 10 13 14 14 16 16 17 18 20 21 22 23 22 22 22 23 23 24 24 24 24 24 24 24 24 24 24 23 23 22 22 23 23 24 25 25 25 25 25 24 21 19 19 18 17 16 14 13 12 11 8 6 5 5 5 5 5
9 5 4 3 1 1 3 6 10 11 10 12 14 15 15 15 16 16 16 14 11 8 7 6 8 9 9 9 10 12 13 14 15 15 16 17 18 19 20 20 20 21 21 21 21 22 23 23 23 23 23 23 24 24 24 24 23 22 22 21 22 22 23 24 24 24 23 22 21 20 19 18 18 18 18 17 17 17 16 13 10 6 5 5 5
7 6 4 3 2 3 5 9 12 11 12 14 16 16 16 16 16 15 14 11 8 7 7 8 9 10 10 10 11 12 13 13 14 14 15 16 17 17 17 17 18 19 19 19 19 20 21 22 22 23 23 23 24 24 24 24 23 22 21 20 20 21 22 23 23 23 22 21 20 20 19 19 19 18 17 17 16 16 16 15 13 10 7 5 4
7 6 5 3 3 5 9 12 12 13 15 16 16 16 16 15 15 13 11 9 8 8 8 10 10 11 12 11 11 11 12 12 12 13 13 14 15 15 15 15 16 17 18 18 18 18 19 21 22 23 23 23 23 23 23 23 22 21 21 20 20 20 21 22 23 22 22 21 21 20 19 19 19 18 17 16 16 17 16 14 13 12 9 7 5
8 6 5 4 5 9 12 13 13 15 17 17 16 16 15 14 13 11 10 9 9 9 10 11 11 12 12 12 11 10 10 10 11 11 12 12 11 11 13 15 16 17 17 18 18 18 19 21 21 22 22 22 22 22 22 22 22 22 22 21 21 21 22 23 23 22 21 21 20 20 19 18 17 17 15 14 15 15 15 14 14 13 11 9 8
8 7 6 5 8 12 14 14 15 17 18 17 17 16 14 13 12 12 11 10 9 10 11 11 12 12 12 12 12 11 9 8 8 8 8 8 9 10 13 15 16 17 19 19 19 19 19 19 20 21 21 21 21 20 21 22 22 23 23 23 23 23 24 25 24 23 22 20 20 20 19 18 17 16 14 13 13 13 14 14 14 14 12 11 10
9 7 7 7 11 15 15 15 17 18 18 17 16 15 14 13 13 12 11 10 10 11 12 12 12 12 12 13 13 12 11 9 8 7 7 8 10 12 14 17 18 20 20 20 20 19 19 20 21 21 22 22 21 21 21 21 22 23 24 24 24 24 25 25 25 25 23 21 19 19 19 18 17 17 16 15 14 13 13 13 13 13 12 12 10
9 8 8 10 14 17 16 16 18 18 18 17 16 15 14 14 14 12 11 10 11 12 13 13 13 13 13 14 14 15 15 14 13 12 12 13 15 17 18 20 21 23 23 23 23 22 22 22 23 24 24 24 24 23 22 21 22 23 24 24 24 24 24 25 25 25 24 22 20 19 19 18 17 17 17 16 16 15 15 14 13 12 11 11 11
10 9 10 13 16 18 16 17 19 19 18 17 16 15 15 15 14 12 11 11 12 13 14 14 14 14 14 15 16 17 17 17 17 17 18 19 20 21 22 23 24 25 26 26 26 25 25 25 26 27 27 27 26 25 24 23 23 23 24 24 24 24 24 24 25 25 24 23 22 21 20 19 18 17 17 17 16 16 16 16 15 13 12 11 10
10 10 13 17 18 18 18 19 20 19 18 17 16 16 16 15 14 13 12 13 14 15 15 15 15 15 16 17 19 20 20 21 21 22 22 23 23 24 25 25 26 27 28 28 27 27 27 28 29 30 30 29 29 28 27 26 25 25 26 26 25 25 25 25 25 25 25 25 24 23 22 21 20 19 18 17 16 15 15 15 15 15 14 12 10
10 12 15 19 20 19 19 20 20 20 18 17 17 16 16 16 15 14 14 15 16 16 16 17 17 17 18 19 21 22 22 23 24 24 24 25 25 25 25 26 27 28 29 29 28 28 28 29 30 31 31 31 31 30 30 29 28 28 28 28 27 26 26 26 26 27 27 26 26 26 25 24 23 22 21 19 18 17 15 14 14 14 14 14 11
11 13 18 21 20 20 21 21 20 20 19 18 17 17 17 16 15 15 16 17 17 17 18 18 18 18 19 21 22 22 22 23 24 24 25 25 25 25 25 26 27 28 30 31 30 30 29 29 31 32 32 32 31 31 31 31 31 30 30 29 29 28 28 27 28 28 28 28 28 28 28 27 26 24 23 21 21 20 19 17 15 15 14 13 10
13 16 20 22 21 21 22 21 21 20 19 18 17 17 17 16 16 15 16 17 18 18 18 18 18 19 20 21 21 21 22 23 23 24 24 24 24 24 25 26 27 29 30 31 32 32 31 31 32 32 33 33 33 33 33 33 32 32 31 30 30 30 29 29 29 29 29 30 30 30 30 29 28 27 25 24 23 22 22 20 19 18 17 15 10
15 18 21 22 22 22 22 22 21 21 20 19 18 18 17 17 16 15 16 17 17 18 18 18 19 19 20 20 20 21 22 23 22 22 22 22 22 23 24 25 27 28 30 32 33 33 32 32 32 33 33 34 34 34 34 34 34 33 32 31 30 31 31 30 30 30 31 31 32 32 32 31 31 30 28 27 25 24 23 23 22 20 20 19 15
18 20 21 22 23 22 22 21 21 21 20 19 18 18 17 16 16 15 16 16 17 17 18 18 18 19 20 20 21 21 22 22 22 21 21 21 21 22 23 25 26 27 29 31 32 32 31 31 31 32 33 33 33 34 35 36 36 36 34 32 31 31 31 31 32 32 32 32 33 33 33 32 32 31 30 28 27 26 25 25 24 22 21 21 20
20 21 21 22 23 23 23 22 21 21 19 19 19 18 17 16 15 15 15 16 16 16 17 17 18 19 19 20 21 21 21 22 22 21 21 21 21 22 23 24 25 26 27 29 30 30 30 29 28 29 31 32 32 33 34 36 37 37 35 33 32 31 31 31 32 32 32 32 32 32 32 32 31 30 30 29 28 27 27 26 25 24 23 22 21
22 23 22 22 23 24 24 23 22 21 20 19 19 18 17 16 15 15 15 15 15 15 16 16 17 18 18 19 20 20 20 21 21 21 21 21 21 21 22 23 23 24 25 26 27 27 28 28 27 26 26 28 30 31 33 34 35 35 35 33 31 31 31 31 31 31 31 31 31 31 31 30 30 30 30 30 29 29 29 28 27 26 25 24 23
23 23 22 22 23 24 24 23 22 21 20 19 19 19 18 16 15 15 15 15 14 15 15 16 17 17 18 18 18 19 19 19 20 20 20 20 19 20 21 21 22 22 23 23 24 24 26 27 28 27 25 24 25 27 30 32 33 33 33 32 30 29 29 29 30 30 30 29 29 29 29 29 29 30 30 31 31 31 31 32 32 30 29 28 27
23 23 23 22 23 24 23 23 22 21 20 19 19 18 18 17 16 15 15 14 14 14 15 15 16 16 17 17 17 18 18 17 18 18 18 18 18 18 19 20 20 20 20 21 21 21 23 25 26 27 27 25 25 25 26 28 30 31 31 31 29 28 27 28 28 28 28 28 28 29 29 29 29 30 31 32 33 34 34 35 36 36 35 34 33
23 23 23 23 24 24 24 23 22 20 19 19 18 18 17 17 16 16 15 14 14 14 14 14 15 15 16 16 16 17 16 16 16 16 16 16 17 17 18 18 18 18 18 18 18 19 20 22 23 24 25 25 25 25 25 26 28 30 30 30 28 26 25 26 27 28 28 28 28 29 29 29 29 30 30 32 34 35 36 38 39 40 41 41 39
24 25 25 25 26 25 24 23 21 20 19 18 18 17 17 16 16 16 15 15 14 13 13 14 14 14 15 15 15 15 15 15 15 14 14 14 15 15 16 16 16 15 15 16 16 16 17 18 20 22 23 24 24 24 25 26 27 29 30 29 27 24 24 24 25 27 28 28 28 29 29 29 30 31 31 32 34 36 38 40 42 43 44 45 45
24 25 26 26 26 25 24 22 20 19 18 18 18 17 16 15 15 15 15 15 14 13 13 13 13 13 14 14 14 14 14 14 13 12 12 12 13 14 14 14 14 13 13 13 14 15 15 16 18 20 22 23 24 24 25 26 27 28 29 29 26 22 20 22 23 25 26 27 27 28 29 29 30 31 32 33 35 36 38 40 42 44 46 47 48
24 23 24 26 26 25 24 22 20 18 18 17 17 16 15 15 14 14 14 14 14 13 12 12 12 12 12 12 12 12 12 12 11 10 10 10 11 12 12 12 12 11 11 11 12 13 13 14 16 18 21 23 24 25 25 25 26 27 28 28 27 22 18 17 19 21 24 26 26 26 28 29 30 31 32 34 35 36 38 39 41 43 45 47 49
25 23 24 26 26 26 25 23 20 18 17 17 17 16 15 14 13 13 13 13 12 12 11 11 11 11 10 10 10 10 10 10 9 9 8 8 9 10 10 10 10 9 9 10 11 12 13 14 15 18 20 22 23 24 25 25 26 26 27 27 27 25 20 16 13 13 16 20 21 22 24 27 29 30 31 33 34 36 38 39 41 43 46 47 49
26 25 26 27 27 26 24 23 20 18 17 17 16 15 14 13 12 11 11 11 11 10 10 9 10 9 8 8 8 8 8 8 8 7 7 7 7 8 9 9 8 8 8 9 10 12 13 14 16 17 19 21 22 23 24 25 25 26 27 28 28 26 24 21 16 12 11 13 14 15 18 21 25 27 29 31 33 35 37 39 41 43 46 48 50
27 27 28 28 27 25 24 23 21 19 17 17 16 15 13 12 11 10 9 9 9 9 9 8 8 8 8 7 6 6 6 6 6 6 6 6 6 7 8 8 8 8 9 9 11 12 13 14 16 17 19 20 21 22 23 24 25 26 27 28 29 28 26 24 22 18 14 12 11 11 13 15 19 23 26 29 31 34 36 38 40 42 45 47 49
29 28 28 28 26 25 25 24 22 20 19 18 17 15 14 12 11 9 8 7 7 7 8 8 7 7 7 6 5 4 4 4 4 4 4 5 5 6 7 8 8 8 9 10 11 12 13 14 16 17 18 19 21 22 23 24 25 26 28 29 31 30 28 26 24 21 17 12 9 11 14 13 14 18 22 25 28 32 35 37 39 41 43 45 48
29 28 29 29 28 27 27 26 24 22 21 20 18 16 15 13 11 9 8 6 5 5 5 6 6 6 5 5 5 4 3 2 2 3 3 4 5 5 6 7 7 8 8 9 11 13 14 15 17 18 19 19 20 22 23 24 25 26 28 30 32 32 31 28 25 22 18 13 10 11 15 15 13 16 19 22 26 29 32 35 38 40 41 44 46
30 31 31 30 28 27 27 27 25 24 22 21 19 17 15 13 11 10 8 7 6 5 4 3 4 4 4 4 3 3 2 2 2 3 4 4 4 5 5 6 7 7 8 9 11 13 14 16 17 18 19 20 20 21 23 24 25 26 29 31 33 33 32 29 26 22 17 14 11 10 15 16 12 13 17 20 23 27 30 33 36 38 40 42 44
Wind_Direction
312 316 317 315 314 311 302 301 303 299 294 291 291 292 292 293 296 299 300 300 304 312 320 324 328 333 342 354 5 15 26 34 35 30 22 15 6 2 2 0 355 353 2 7 13 30 44 45 43 63 82 97 108 102 99 96 89 81 77 77 81 82 81 81 80 77 74 71 66 61 57 54 56 59 61 57 54 53 57 49 248 244 262 272 289
310 317 319 316 318 317 305 304 303 297 292 291 291 291 292 294 297 298 299 304 312 318 323 327 332 340 355 9 20 33 40 41 36 28 21 15 10 11 15 14 11 13 20 20 22 30 39 50 44 61 80 93 104 103 101 101 95 90 83 81 85 86 87 85 82 79 76 72 66 60 56 54 49 45 50 50 50 48 47 42 28 310 290 288 295
309 314 316 313 315 314 307 301 299 295 293 292 294 294 295 296 297 299 305 312 316 320 325 331 338 354 10 24 38 49 47 41 33 26 22 18 18 22 25 25 26 30 33 32 30 26 31 43 43 58 82 94 96 99 106 107 105 97 91 86 84 84 85 85 83 77 70 63 57 51 47 47 45 41 41 44 43 43 43 42 38 21 345 327 321
308 312 311 309 309 308 304 301 298 297 297 297 298 297 297 298 301 307 313 315 316 323 330 337 351 11 25 40 54 54 46 37 30 25 22 21 23 27 31 34 34 37 39 38 33 21 22 35 46 56 74 87 85 90 107 114 119 104 92 86 75 66 59 62 69 68 58 46 39 33 26 27 32 35 35 36 41 39 38 38 36 31 16 352 342
310 312 310 308 308 308 306 303 302 301 300 300 298 299 301 304 310 315 316 316 320 329 336 349 11 28 40 55 58 50 42 34 28 24 22 23 26 30 36 39 39 41 44 43 35 23 24 34 55 64 67 70 65 67 75 95 128 142 139 123 106 56 16 14 34 52 48 35 29 20 4 2 9 19 28 29 37 44 40 37 34 32 29 17 0
313 314 312 311 311 311 309 307 305 303 302 299 299 302 305 310 315 317 317 321 331 338 347 9 31 44 54 59 53 45 37 30 26 22 22 25 29 36 40 43 45 47 52 53 50 48 49 58 67 72 67 340 338 357 14 56 77 166 214 245 258 277 291 301 334 12 30 34 37 23 352 346 354 0 21 23 28 42 45 41 35 32 32 28 19
313 315 315 314 315 315 312 309 306 303 302 300 301 304 308 313 317 318 322 334 344 348 6 33 52 61 62 57 49 40 32 26 24 21 23 28 34 41 44 48 51 53 56 58 61 64 65 67 67 65 68 64 336 299 289 286 288 279 257 277 294 300 289 281 278 294 7 44 55 40 314 293 332 351 23 25 21 32 44 45 39 35 34 33 28
315 318 318 318 319 316 313 310 306 303 303 301 302 306 311 317 319 323 336 352 356 6 34 59 74 76 66 56 46 35 28 24 22 22 27 31 36 42 46 50 53 55 57 59 63 66 67 69 69 67 67 66 60 47 22 351 326 309 301 313 318 315 303 294 284 282 280 116 109 182 241 250 258 275 35 27 18 24 36 43 42 38 36 38 36
318 320 320 320 319 316 313 309 306 305 305 306 308 313 318 321 325 339 0 10 12 34 64 80 89 80 64 52 41 31 25 22 22 26 31 33 34 38 44 49 53 56 57 59 61 62 64 65 66 65 63 62 58 55 49 41 30 15 352 323 314 309 301 293 283 274 256 210 185 208 226 240 268 264 20 28 13 16 28 34 40 39 37 40 41
320 322 322 321 318 315 312 310 309 310 310 312 317 321 323 327 342 11 30 30 39 68 86 92 88 69 55 45 34 26 22 22 25 30 34 32 33 36 40 46 51 54 55 56 57 59 61 61 61 60 59 59 58 56 53 48 42 34 18 351 326 308 294 284 276 255 225 195 198 210 213 220 241 260 196 36 4 9 26 30 36 38 36 39 44
321 322 321 319 316 313 311 310 312 314 314 318 324 326 329 343 15 50 54 53 72 90 96 91 73 54 49 38 26 22 20 24 30 34 33 30 30 34 37 42 46 50 51 53 55 58 61 61 59 58 58 58 58 56 54 50 46 41 34 24 8 339 312 287 276 263 230 188 190 203 210 217 223 208 175 59 1 15 26 29 32 38 37 38 44
321 321 320 317 313 311 310 311 314 317 320 324 328 331 343 14 62 75 69 77 91 97 94 79 55 50 46 32 24 21 20 26 34 35 30 26 28 31 34 37 41 45 49 52 55 58 61 61 59 58 58 57 56 53 49 46 42 39 36 32 24 13 357 318 276 263 231 198 190 196 206 215 223 213 176 305 349 29 27 31 31 36 40 40 43
320 319 318 315 311 310 311 313 317 321 326 332 336 345 10 65 86 83 83 88 93 95 83 61 52 51 40 28 23 19 19 27 34 34 29 24 26 30 32 33 37 43 49 53 56 59 62 62 60 58 57 55 54 51 48 45 40 37 35 33 29 23 17 6 269 228 213 195 186 185 197 209 226 225 200 258 294 32 32 36 35 37 42 43 45
318 317 315 313 311 311 313 314 318 326 335 342 349 7 67 94 91 88 89 88 90 87 69 58 55 48 35 26 21 17 18 24 30 33 31 27 28 31 31 31 35 44 51 55 57 60 62 62 60 57 55 54 53 50 47 43 38 36 35 34 33 30 29 29 62 187 176 169 170 169 173 188 210 218 223 250 270 340 27 28 32 40 44 45 48
315 313 313 311 311 313 313 314 322 337 350 0 9 65 103 101 94 93 87 85 86 77 66 60 55 44 32 24 18 15 17 23 28 33 35 34 33 32 32 32 37 48 55 56 58 60 60 59 58 56 54 53 51 50 47 43 39 37 36 35 35 36 40 45 64 141 157 155 155 151 145 162 178 177 207 244 267 295 336 1 24 39 45 50 49
311 311 311 310 312 313 313 316 333 0 19 18 64 109 110 101 98 92 84 86 84 75 68 60 52 42 30 22 15 14 17 25 33 39 41 41 40 38 38 40 47 55 58 57 58 58 57 56 55 55 53 52 51 50 48 45 42 39 37 37 37 40 46 52 61 91 121 136 140 138 133 143 158 162 181 211 251 291 310 318 342 20 37 53 57
310 311 310 311 312 311 312 323 0 48 46 67 116 117 110 101 97 89 86 87 84 77 68 60 50 37 28 20 13 15 21 31 41 47 49 48 48 47 47 51 57 61 61 59 58 56 55 54 53 53 51 50 49 48 46 44 42 41 38 38 39 42 47 52 57 68 82 106 118 115 116 117 144 172 191 213 246 292 315 321 319 340 23 45 71
310 310 309 310 310 308 314 343 57 82 91 121 125 118 108 101 95 89 89 89 86 78 69 61 45 34 27 17 13 18 27 39 49 55 57 56 56 56 59 62 64 64 63 61 59 57 56 54 53 52 49 47 46 45 44 42 41 40 40 40 41 43 47 52 54 58 66 86 102 97 91 83 94 133 179 240 273 297 298 312 323 330 14 36 79
308 308 308 308 304 304 323 53 94 114 128 131 126 116 108 103 97 93 92 90 85 78 70 57 40 35 25 14 17 24 37 49 56 61 62 62 64 67 69 69 68 66 64 62 61 59 57 55 54 53 50 48 46 44 42 40 39 39 41 41 43 45 47 51 52 53 55 61 78 85 86 80 72 69 59 26 346 344 332 329 330 311 321 18 66
304 306 306 303 299 306 12 102 123 145 137 133 125 115 111 105 99 96 93 89 85 78 69 51 42 36 20 17 24 33 47 57 63 67 67 68 72 74 74 72 70 67 65 63 61 58 56 54 53 52 51 49 47 45 42 40 38 38 40 42 46 47 47 50 52 52 52 55 60 57 57 73 68 70 65 55 43 27 17 6 10 1 332 347 1
302 303 300 291 293 304 114 125 158 148 139 133 124 117 114 107 102 98 93 90 85 78 68 56 48 30 20 28 34 44 57 65 71 73 71 74 77 76 74 72 69 67 64 62 59 56 54 52 51 49 48 47 45 44 42 41 39 38 38 41 45 48 48 50 51 52 53 56 57 52 51 52 44 38 21 7 358 340 339 351 3 6 3 3 355
299 296 284 272 274 142 131 161 158 147 140 132 124 122 116 109 105 100 95 91 86 79 72 64 45 27 34 44 46 55 63 71 78 78 77 79 78 77 73 71 68 65 63 60 56 52 50 49 48 47 45 45 43 42 42 41 39 38 38 39 42 45 47 50 51 52 54 57 57 54 56 57 54 48 34 22 10 348 323 318 329 352 7 10 0
291 278 252 247 237 139 164 170 154 145 139 131 127 124 116 110 107 103 98 94 89 83 75 60 43 46 57 57 58 65 68 74 80 81 81 80 78 77 73 69 65 61 58 55 50 46 45 45 44 43 42 42 42 42 43 41 39 39 39 39 39 40 43 46 49 51 53 56 55 53 56 58 58 57 57 53 46 41 29 3 340 336 348 4 11
272 242 227 232 200 153 171 161 151 144 136 132 128 122 115 110 109 105 101 97 91 81 68 61 63 67 69 67 69 73 74 75 79 82 84 82 79 76 70 64 59 53 50 47 44 40 39 40 39 36 36 38 40 42 42 41 40 40 39 38 38 37 38 41 44 47 49 51 50 49 51 52 52 54 58 56 50 45 42 40 32 16 353 343 350
237 213 222 228 183 166 164 155 149 141 135 132 127 120 116 112 110 107 104 97 87 75 72 75 78 77 75 75 77 80 81 79 79 82 84 84 80 74 67 57 49 43 39 40 38 36 35 34 32 30 31 34 37 40 41 40 41 43 40 39 39 38 38 38 39 40 42 44 45 45 47 48 46 49 54 53 51 45 41 41 41 40 29 5 335
210 206 219 218 182 164 158 154 147 140 136 132 126 120 116 114 113 109 103 94 87 84 84 86 85 82 78 78 81 86 88 85 84 84 84 82 77 70 59 44 36 32 32 35 36 35 33 29 26 26 28 32 35 39 40 40 43 48 47 45 44 43 42 42 40 38 36 35 37 39 41 44 44 47 50 47 45 44 40 41 40 39 37 33 15
196 206 214 202 177 161 158 154 146 141 137 132 125 120 117 116 114 107 100 95 94 92 92 91 89 85 81 81 83 90 96 94 90 86 82 76 66 54 38 30 31 34 38 41 41 38 31 26 24 25 28 33 38 40 42 44 48 51 51 51 50 48 48 47 47 44 39 33 31 31 33 37 40 46 51 45 40 37 36 40 40 36 33 31 26
193 205 208 190 168 158 157 153 146 142 137 131 126 121 119 117 111 106 102 101 98 96 95 94 92 89 85 82 82 87 96 100 96 88 77 60 45 35 31 35 42 46 47 47 44 38 32 28 28 30 34 38 43 45 46 50 54 54 53 53 52 52 51 51 51 50 46 40 34 32 30 30 31 36 41 38 33 27 25 32 36 36 35 32 26
193 203 201 180 165 158 157 152 147 143 136 131 127 123 121 116 110 107 106 102 98 96 97 96 96 92 87 81 79 81 85 90 92 85 71 55 47 45 47 51 53 53 53 51 48 44 40 38 39 40 42 45 49 51 51 53 54 53 53 53 53 52 52 51 51 51 51 47 43 41 38 33 28 27 29 26 24 19 16 19 22 27 33 33 29
193 199 190 172 163 158 156 153 147 141 135 131 128 125 121 117 113 110 106 101 97 98 99 99 98 94 87 82 80 80 80 82 82 79 72 66 62 61 60 60 58 57 56 55 54 53 51 50 50 50 50 51 53 54 54 52 51 51 52 52 52 51 50 50 50 50 50 49 46 44 44 43 36 31 29 26 23 18 14 11 9 13 20 26 29
195 195 178 165 162 157 157 154 147 140 135 133 130 126 123 119 116 111 106 101 99 100 102 102 99 94 90 86 83 81 81 82 81 79 76 72 69 66 63 61 59 58 57 56 57 59 60 59 57 56 55 55 55 56 54 52 49 48 49 50 49 48 47 47 47 47 48 47 45 43 43 44 43 38 36 32 27 21 14 10 6 4 8 18 30
197 191 172 162 161 157 157 155 147 141 137 135 132 129 127 122 117 113 109 104 101 102 103 102 99 96 93 90 86 84 84 84 84 81 79 75 70 66 62 60 59 57 56 55 59 63 64 62 60 58 56 55 55 54 53 51 49 47 47 48 47 46 45 44 44 44 44 44 44 41 40 41 41 38 36 35 32 28 20 12 6 2 2 10 29
197 186 170 160 160 159 158 156 149 143 140 137 136 134 129 123 119 115 110 106 103 103 102 100 98 98 97 94 90 88 88 87 85 82 78 73 69 65 62 60 59 58 57 57 61 63 63 61 58 56 55 54 52 51 51 50 48 47 46 46 46 45 44 43 43 43 43 42 42 42 40 38 38 36 35 34 31 30 27 20 13 7 2 2 21
191 180 169 158 158 160 158 157 151 145 142 140 140 137 131 125 121 117 111 107 105 103 102 100 100 101 101 99 95 91 89 87 84 80 76 72 68 66 64 62 61 60 59 60 62 62 61 58 55 54 53 52 50 50 49 49 48 46 45 45 45 45 44 43 42 43 43 42 42 43 42 41 40 38 36 35 33 31 29 25 20 17 9 360 11
183 176 169 157 158 162 159 159 154 148 145 144 143 139 133 128 123 118 113 109 107 104 102 102 101 103 104 102 98 92 88 85 81 78 75 72 70 68 67 64 62 61 61 61 61 61 59 57 55 54 53 51 50 49 48 47 46 46 45 44 44 44 43 43 42 42 42 42 41 41 42 42 41 41 40 38 36 34 32 29 25 21 15 4 6
176 175 169 158 159 163 161 160 156 150 148 146 146 141 135 130 127 122 116 112 109 106 104 103 102 104 105 103 98 91 86 81 79 77 76 74 72 70 68 66 63 62 61 60 60 59 58 57 56 56 54 52 51 49 48 46 45 45 44 43 43 43 42 42 42 41 41 40 40 39 39 39 39 39 40 40 39 37 34 32 29 26 19 14 13
172 174 169 159 160 163 163 162 157 153 151 149 148 143 138 134 130 126 121 117 113 110 108 106 104 104 104 102 96 89 84 81 79 78 77 77 74 71 69 67 64 61 60 59 58 58 57 57 57 57 55 53 51 49 48 46 44 43 43 42 41 41 40 40 40 40 40 39 39 38 37 36 36 36 36 37 37 36 35 33 31 28 24 20 19
171 173 168 162 163 164 165 163 159 156 153 151 150 146 142 139 134 130 125 121 118 115 112 110 107 104 103 100 94 89 85 82 80 79 78 78 74 71 69 67 64 62 60 58 57 57 57 57 57 56 55 53 50 48 47 45 44 42 41 41 41 40 40 39 38 38 39 39 39 39 38 37 36 36 35 35 35 34 34 33 31 29 26 22 21
172 172 168 165 166 166 166 164 161 158 156 154 152 149 145 142 138 133 129 125 123 119 116 113 110 107 105 101 96 91 88 85 82 80 78 77 74 72 70 68 65 62 60 58 56 56 57 57 56 55 54 52 49 47 45 43 42 41 39 39 40 41 41 40 39 38 39 39 39 39 39 39 39 39 39 38 37 35 36 35 32 30 27 24 22
173 174 169 168 168 167 167 165 164 161 159 158 154 151 148 145 142 136 133 130 127 123 119 116 113 110 108 106 102 96 92 88 84 81 80 78 75 73 71 69 66 63 61 58 56 55 56 58 57 55 53 50 47 44 42 40 39 39 38 39 40 42 43 43 42 41 40 40 40 41 41 42 43 45 45 45 44 42 42 41 39 36 33 30 28
174 174 169 169 170 168 167 166 167 163 161 159 156 154 151 148 145 140 137 134 131 127 123 120 115 112 111 109 106 102 97 92 88 85 83 80 77 75 72 70 67 65 62 59 57 56 57 59 59 58 55 52 48 44 40 37 36 37 37 37 39 41 43 44 45 44 43 42 42 44 46 47 48 49 50 51 51 50 49 48 47 45 43 39 36
174 173 170 171 172 169 169 169 169 165 162 160 158 157 155 152 148 143 139 137 135 132 127 124 119 115 112 111 108 105 101 96 92 89 86 82 78 76 73 70 68 67 64 62 59 57 57 59 61 60 57 54 51 47 42 38 37 36 37 37 38 39 40 43 46 47 47 47 47 48 50 52 52 53 53 54 55 55 54 53 52 50 49 47 44
175 174 173 174 173 171 172 172 171 167 163 162 160 160 159 155 151 145 142 141 139 136 133 128 123 119 115 113 111 108 104 99 95 92 89 85 80 77 75 73 70 70 68 65 63 59 56 56 57 57 55 53 49 46 43 39 37 35 35 36 37 38 38 40 44 47 49 50 51 52 53 55 56 56 56 56 56 56 56 55 54 52 50 49 47
180 177 175 174 173 171 174 174 172 168 165 164 163 163 162 159 154 149 146 144 143 142 138 133 129 123 118 116 113 110 106 101 96 92 89 85 82 79 77 75 73 72 70 66 62 58 53 50 51 51 50 48 45 41 38 36 34 33 31 32 35 37 38 40 42 45 47 48 49 51 52 54 55 56 56 56 55 55 55 55 54 53 51 49 47
183 180 177 175 173 173 175 175 173 171 168 166 165 165 165 163 159 154 151 147 146 145 142 137 132 126 121 117 114 112 108 103 97 91 86 83 80 79 78 75 73 72 68 60 55 51 46 43 43 44 44 44 41 38 35 32 31 29 27 27 29 33 35 38 41 43 43 42 44 47 51 52 53 54 55 54 54 54 53 53 52 50 49 47 45
183 182 180 178 176 176 178 177 175 173 171 170 170 169 169 168 165 160 155 151 147 144 140 137 133 128 122 118 116 114 110 107 99 92 84 79 75 74 73 71 69 65 56 48 43 40 38 34 35 37 38 38 37 34 31 29 26 24 21 20 20 22 25 25 26 30 31 32 35 41 46 48 50 51 51 51 51 50 49 49 48 46 44 43 42
182 184 184 183 181 181 181 179 177 176 176 176 175 174 173 173 172 167 162 155 148 142 137 133 130 127 124 119 117 115 112 109 102 96 87 77 67 63 61 58 54 47 37 31 30 30 29 27 28 31 33 33 32 30 28 25 22 18 16 13 11 11 13 12 7 355 349 1 15 28 36 39 43 45 46 46 46 45 45 45 44 42 39 37 36
185 187 188 186 184 184 184 182 180 180 181 182 180 179 179 179 179 178 173 166 156 146 138 132 129 126 124 119 115 111 108 106 101 98 89 76 63 54 48 44 37 26 19 16 18 21 21 20 21 24 27 26 25 24 23 20 17 14 10 8 5 4 3 3 1 352 337 336 352 8 17 22 30 35 38 39 39 40 39 39 40 38 35 33 32
187 189 189 188 187 187 187 186 184 185 187 188 186 185 186 187 188 188 189 184 171 156 143 135 128 123 120 118 114 107 100 94 88 82 76 66 54 45 40 36 28 17 10 6 7 10 12 12 13 15 18 19 18 17 16 14 12 9 6 3 1 359 357 355 355 351 341 332 334 351 360 2 11 22 27 30 32 32 32 33 34 34 31 29 27
186 189 191 191 192 191 190 189 188 190 193 194 192 190 192 193 196 198 203 207 201 184 159 142 133 125 118 112 110 105 93 73 48 38 37 36 33 32 30 25 18 11 6 3 0 0 3 4 4 6 9 11 10 9 8 7 7 4 2 1 359 356 354 352 352 349 341 330 313 323 343 348 356 9 18 22 24 25 24 25 27 26 24 22 20
185 189 192 195 197 195 192 192 192 195 198 199 197 196 197 198 201 206 213 221 228 226 214 188 160 144 134 120 106 95 84 52 14 3 4 8 7 7 11 13 12 9 4 0 357 354 355 357 358 0 3 5 4 3 1 1 2 2 360 359 357 355 353 352 351 350 343 331 311 311 333 338 343 358 10 15 17 17 17 17 18 18 15 13 11
Height
11015 11013 11011 11008 11007 11006 11005 11004 11002 11001 10999 10996 10994 10993 10991 10990 10988 10986 10984 10982 10980 10978 10976 10974 10972 10971 10970 10968 10967 10965 10964 10963 10962 10960 10958 10956 10954 10951 10947 10945 10942 10941 10940 10940 10940 10940 10940 10940 10940 10940 10940 10940 10940 10940 10940 10939 10939 10939 10939 10938 10938 10938 10937 10937 10937 10937 10937 10937 10937 10936 10936 10935 10934 10934 10933 10932 10932 10931 10931 10931 10931 10931 10930 10930 10930
11014 11013 11010 11007 11006 11006 11006 11004 11001 10999 10997 10995 10993 10991 10990 10988 10987 10985 10983 10981 10979 10978 10976 10974 10973 10972 10970 10969 10968 10967 10965 10964 10962 10961 10959 10956 10953 10950 10947 10944 10942 10940 10940 10940 10940 10940 10940 10940 10940 10940 10940 10940 10940 10940 10940 10940 10940 10939 10939 10939 10939 10938 10938 10938 10938 10938 10938 10938 10937 10937 10936 10936 10935 10934 10934 10933 10932 10932 10931 10931 10930 10930 10930 10929 10929
11013 11012 11011 11008 11006 11007 11007 11005 11001 10998 10995 10993 10992 10990 10989 10987 10986 10984 10982 10981 10979 10977 10976 10975 10973 10972 10971 10970 10969 10968 10966 10965 10963 10962 10959 10957 10954 10951 10947 10944 10942 10941 10940 10940 10940 10939 10940 10940 10940 10940 10940 10940 10940 10940 10940 10940 10940 10940 10940 10939 10939 10939 10939 10939 10938 10938 10938 10938 10938 10937 10937 10937 10936 10935 10934 10933 10932 10932 10931 10930 10930 10930 10929 10929 10929
11012 11012 11011 11009 11007 11006 11005 11003 11000 10996 10994 10992 10991 10989 10988 10986 10985 10983 10982 10980 10979 10977 10976 10975 10974 10972 10972 10971 10970 10969 10967 10966 10964 10962 10960 10957 10954 10952 10949 10946 10944 10942 10941 10941 10940 10940 10940 10940 10940 10940 10940 10940 10940 10940 10940 10940 10940 10940 10940 10940 10939 10939 10939 10939 10939 10939 10939 10938 10938 10938 10938 10937 10937 10936 10935 10934 10933 10932 10931 10931 10930 10930 10929 10929 10929
11010 11010 11009 11007 11005 11004 11002 10999 10997 10994 10993 10991 10990 10988 10987 10986 10984 10983 10981 10980 10978 10977 10976 10975 10973 10973 10972 10972 10971 10970 10968 10967 10965 10963 10961 10959 10956 10954 10951 10948 10946 10944 10943 10942 10941 10940 10940 10940 10940 10940 10940 10940 10940 10940 10940 10940 10940 10940 10940 10939 10939 10939 10939 10939 10939 10939 10939 10939 10939 10939 10938 10938 10937 10936 10935 10934 10933 10932 10931 10931 10930 10930 10929 10929 10929
11009 11008 11006 11005 11003 11001 10999 10997 10995 10993 10991 10990 10989 10988 10986 10985 10983 10982 10981 10980 10978 10977 10976 10974 10974 10974 10973 10972 10971 10970 10969 10968 10966 10965 10963 10960 10958 10955 10953 10951 10948 10946 10945 10943 10941 10941 10940 10940 10940 10940 10940 10940 10940 10940 10940 10940 10940 10939 10939 10939 10939 10939 10939 10939 10939 10940 10940 10940 10940 10940 10939 10938 10937 10936 10935 10934 10933 10932 10931 10931 10930 10930 10929 10929 10929
11006 11005 11004 11002 11000 10999 10997 10995 10993 10991 10991 10990 10988 10987 10985 10984 10983 10981 10981 10979 10978 10977 10976 10975 10975 10974 10974 10973 10972 10971 10970 10968 10967 10965 10963 10961 10959 10957 10955 10953 10951 10948 10946 10945 10943 10942 10942 10941 10941 10941 10941 10941 10940 10940 10940 10939 10939 10939 10939 10938 10938 10938 10938 10938 10939 10939 10940 10940 10941 10942 10939 10937 10937 10936 10934 10934 10933 10933 10932 10931 10930 10930 10930 10929 10929
11003 11002 11001 10999 10998 10996 10995 10993 10992 10991 10990 10989 10987 10986 10984 10983 10982 10981 10980 10979 10977 10977 10976 10976 10976 10975 10975 10974 10973 10972 10971 10969 10967 10966 10964 10962 10960 10959 10958 10955 10952 10950 10949 10947 10946 10945 10944 10943 10943 10942 10942 10941 10941 10940 10940 10939 10939 10939 10938 10938 10937 10937 10936 10937 10937 10938 10940 10941 10942 10942 10938 10937 10937 10935 10934 10934 10934 10933 10932 10931 10931 10930 10930 10930 10929
11001 10999 10998 10997 10995 10994 10993 10991 10990 10990 10989 10988 10986 10984 10983 10982 10982 10981 10980 10978 10978 10977 10976 10976 10977 10976 10976 10974 10974 10973 10971 10969 10968 10966 10964 10963 10961 10960 10959 10957 10954 10952 10951 10950 10949 10948 10947 10945 10945 10944 10943 10942 10941 10941 10940 10940 10939 10939 10938 10938 10937 10936 10935 10935 10935 10936 10938 10940 10940 10939 10938 10938 10936 10935 10934 10934 10934 10933 10932 10932 10931 10931 10931 10930 10930
10999 10997 10996 10995 10993 10992 10991 10990 10989 10989 10988 10986 10985 10984 10983 10982 10982 10981 10979 10978 10978 10977 10977 10977 10977 10977 10976 10975 10974 10973 10971 10970 10968 10966 10965 10964 10963 10962 10960 10958 10956 10954 10954 10953 10951 10950 10949 10947 10947 10946 10945 10944 10943 10942 10942 10941 10940 10939 10938 10937 10936 10934 10934 10933 10934 10934 10935 10937 10937 10936 10936 10937 10936 10934 10933 10933 10933 10933 10933 10932 10932 10932 10931 10931 10931
10998 10996 10995 10993 10992 10991 10990 10989 10988 10988 10987 10985 10984 10983 10982 10982 10981 10980 10979 10979 10978 10978 10978 10978 10978 10977 10976 10975 10975 10973 10972 10970 10969 10967 10966 10966 10964 10963 10961 10960 10958 10956 10955 10955 10953 10952 10950 10949 10948 10948 10947 10946 10945 10944 10943 10942 10941 10939 10938 10937 10935 10933 10932 10931 10931 10932 10933 10935 10934 10933 10934 10934 10935 10933 10932 10933 10933 10933 10933 10933 10932 10932 10932 10932 10931
10997 10995 10994 10992 10991 10990 10989 10988 10988 10987 10985 10984 10983 10982 10982 10981 10981 10980 10979 10979 10979 10979 10979 10979 10978 10977 10977 10976 10975 10974 10972 10970 10969 10968 10968 10967 10966 10964 10963 10961 10960 10958 10957 10956 10955 10954 10952 10951 10950 10949 10948 10947 10946 10945 10944 10943 10941 10940 10938 10937 10934 10932 10930 10929 10929 10930 10931 10932 10932 10932 10933 10933 10933 10932 10932 10932 10933 10933 10933 10933 10933 10933 10933 10932 10932
10996 10995 10993 10992 10990 10989 10988 10988 10987 10986 10984 10983 10983 10982 10982 10981 10981 10980 10980 10980 10980 10980 10980 10980 10979 10978 10978 10977 10976 10974 10972 10971 10970 10970 10969 10968 10967 10965 10964 10962 10961 10960 10959 10958 10957 10955 10954 10953 10952 10951 10950 10949 10947 10946 10945 10943 10942 10940 10939 10937 10934 10931 10929 10927 10927 10928 10929 10930 10931 10931 10932 10932 10932 10932 10932 10933 10933 10933 10933 10933 10933 10933 10933 10932 10932
10994 10994 10993 10991 10990 10988 10987 10987 10986 10985 10984 10983 10983 10982 10982 10981 10981 10981 10980 10980 10980 10981 10981 10980 10980 10979 10979 10978 10976 10975 10973 10972 10971 10971 10970 10969 10968 10967 10965 10964 10963 10962 10961 10959 10958 10957 10956 10954 10953 10952 10951 10950 10948 10947 10946 10944 10943 10941 10939 10936 10934 10930 10927 10926 10925 10926 10927 10928 10929 10930 10931 10931 10931 10931 10932 10933 10933 10933 10933 10933 10933 10933 10933 10932 10932
10993 10993 10992 10991 10989 10988 10987 10986 10985 10984 10983 10983 10983 10982 10982 10982 10981 10981 10981 10981 10981 10981 10981 10981 10980 10980 10980 10979 10977 10975 10974 10973 10972 10972 10971 10970 10969 10968 10967 10966 10964 10963 10962 10961 10959 10958 10957 10956 10954 10953 10952 10951 10949 10948 10946 10945 10943 10941 10939 10936 10934 10930 10927 10925 10925 10925 10926 10927 10929 10930 10930 10931 10931 10931 10932 10932 10932 10933 10933 10933 10932 10932 10932 10932 10932
10992 10992 10991 10990 10988 10987 10986 10985 10985 10984 10984 10983 10983 10983 10982 10982 10982 10982 10982 10982 10982 10982 10982 10981 10981 10981 10980 10979 10977 10976 10975 10974 10973 10972 10972 10971 10970 10969 10969 10967 10966 10964 10963 10962 10961 10960 10958 10957 10956 10954 10953 10951 10950 10948 10947 10946 10944 10942 10940 10937 10935 10931 10928 10926 10926 10926 10927 10928 10929 10929 10930 10931 10931 10931 10932 10932 10932 10932 10932 10932 10932 10932 10932 10932 10932
10992 10991 10990 10989 10988 10987 10986 10985 10984 10984 10984 10984 10984 10983 10983 10983 10983 10983 10983 10983 10983 10983 10983 10982 10982 10982 10981 10980 10978 10977 10976 10975 10974 10973 10973 10972 10971 10971 10970 10969 10967 10966 10964 10963 10962 10961 10960 10959 10957 10956 10954 10953 10951 10949 10948 10947 10945 10943 10941 10939 10936 10933 10930 10928 10928 10928 10929 10929 10929 10930 10931 10931 10932 10932 10932 10932 10932 10932 10932 10932 10932 10932 10932 10932 10931
10990 10990 10989 10988 10987 10986 10985 10985 10984 10984 10984 10984 10984 10984 10984 10984 10984 10984 10984 10984 10984 10984 10983 10983 10983 10983 10982 10981 10980 10979 10978 10977 10976 10975 10974 10973 10973 10972 10971 10970 10969 10968 10966 10965 10964 10963 10962 10960 10959 10958 10956 10954 10952 10951 10950 10948 10946 10944 10942 10940 10937 10935 10933 10931 10931 10931 10930 10930 10931 10931 10932 10932 10933 10933 10933 10933 10933 10933 10933 10932 10932 10932 10932 10931 10931
10989 10989 10988 10987 10986 10985 10985 10985 10984 10985 10985 10985 10985 10985 10985 10985 10985 10985 10985 10985 10985 10985 10985 10985 10985 10984 10983 10982 10981 10980 10979 10978 10977 10976 10976 10975 10974 10974 10973 10971 10970 10969 10968 10967 10966 10964 10963 10962 10960 10959 10958 10956 10954 10953 10951 10950 10948 10946 10944 10942 10940 10938 10936 10935 10934 10933 10932 10932 10932 10933 10933 10933 10933 10933 10933 10933 10933 10933 10932 10932 10932 10932 10931 10931 10931
10988 10988 10987 10986 10985 10985 10985 10985 10985 10985 10985 10985 10985 10985 10986 10985 10986 10986 10986 10986 10986 10986 10986 10986 10986 10985 10984 10984 10983 10982 10981 10980 10979 10978 10978 10977 10976 10975 10974 10973 10972 10971 10970 10969 10967 10966 10965 10963 10962 10961 10959 10958 10956 10955 10953 10951 10950 10948 10946 10945 10943 10941 10939 10938 10937 10936 10935 10934 10933 10934 10934 10934 10934 10934 10934 10933 10933 10933 10932 10932 10932 10931 10931 10931 10931
10987 10987 10986 10985 10985 10985 10985 10985 10985 10985 10985 10986 10986 10986 10986 10986 10987 10987 10987 10987 10987 10988 10988 10988 10987 10986 10986 10985 10984 10984 10983 10982 10981 10980 10980 10979 10978 10977 10976 10975 10974 10973 10972 10970 10969 10968 10967 10965 10964 10962 10961 10959 10958 10956 10955 10954 10952 10950 10948 10947 10945 10944 10942 10941 10940 10939 10938 10936 10936 10936 10935 10935 10934 10934 10934 10934 10933 10933 10932 10932 10932 10932 10932 10931 10931
10986 10986 10986 10985 10985 10985 10985 10985 10985 10985 10986 10986 10987 10987 10987 10987 10988 10988 10988 10988 10989 10989 10989 10989 10988 10988 10987 10987 10986 10985 10984 10984 10983 10982 10982 10981 10980 10979 10978 10977 10976 10975 10973 10972 10971 10970 10969 10967 10966 10964 10963 10961 10960 10958 10957 10956 10954 10952 10951 10949 10948 10946 10945 10943 10942 10941 10940 10939 10939 10938 10937 10936 10936 10935 10934 10934 10933 10933 10932 10932 10932 10932 10932 10932 10932
10985 10985 10985 10985 10985 10985 10985 10985 10986 10986 10987 10987 10987 10988 10988 10988 10988 10989 10989 10989 10990 10990 10990 10989 10989 10989 10988 10988 10987 10986 10986 10985 10985 10984 10983 10982 10982 10981 10980 10979 10978 10977 10975 10974 10973 10971 10970 10969 10967 10966 10964 10963 10962 10960 10959 10957 10956 10954 10953 10951 10950 10948 10946 10945 10944 10943 10943 10942 10941 10940 10939 10938 10937 10936 10935 10934 10933 10933 10932 10931 10931 10931 10932 10932 10932
10984 10984 10984 10984 10985 10985 10985 10985 10986 10987 10987 10988 10988 10989 10989 10989 10989 10989 10990 10990 10990 10990 10990 10990 10990 10990 10989 10989 10988 10988 10987 10987 10986 10985 10985 10984 10983 10983 10982 10981 10980 10978 10977 10975 10974 10973 10971 10970 10969 10967 10966 10964 10963 10961 10960 10959 10957 10956 10954 10953 10951 10950 10948 10946 10945 10945 10944 10943 10943 10941 10940 10939 10938 10937 10936 10935 10934 10933 10932 10932 10931 10931 10931 10931 10931
10983 10983 10983 10984 10984 10984 10985 10986 10987 10987 10988 10989 10989 10989 10990 10990 10990 10990 10990 10991 10991 10991 10991 10991 10990 10990 10990 10989 10989 10989 10988 10988 10987 10987 10986 10985 10985 10984 10983 10982 10981 10979 10978 10976 10975 10974 10973 10971 10970 10968 10967 10965 10963 10962 10961 10960 10959 10957 10956 10955 10953 10952 10950 10948 10947 10946 10945 10944 10943 10942 10941 10940 10939 10938 10937 10936 10935 10934 10933 10932 10931 10931 10931 10930 10930
10982 10983 10983 10983 10984 10984 10985 10986 10987 10988 10989 10989 10990 10990 10991 10991 10991 10991 10991 10991 10991 10991 10991 10991 10991 10991 10991 10990 10990 10989 10989 10989 10988 10988 10987 10987 10986 10985 10985 10984 10982 10981 10979 10978 10976 10975 10974 10972 10970 10969 10967 10966 10964 10963 10962 10961 10960 10959 10958 10956 10955 10954 10952 10950 10949 10947 10946 10945 10944 10943 10942 10941 10940 10939 10938 10937 10936 10935 10934 10933 10932 10931 10931 10930 10930
10982 10982 10982 10983 10984 10984 10985 10986 10987 10988 10989 10990 10991 10991 10991 10992 10992 10992 10992 10992 10992 10992 10992 10992 10992 10992 10992 10991 10991 10990 10990 10990 10989 10989 10988 10988 10987 10987 10986 10985 10983 10982 10980 10979 10977 10976 10974 10973 10971 10969 10968 10967 10965 10964 10963 10963 10962 10961 10959 10958 10956 10955 10954 10952 10951 10949 10948 10947 10945 10944 10943 10942 10941 10940 10939 10938 10937 10936 10935 10934 10933 10932 10931 10930 10930
10981 10981 10982 10983 10984 10984 10985 10987 10988 10989 10990 10991 10991 10992 10992 10992 10992 10992 10993 10993 10993 10993 10993 10993 10993 10993 10993 10992 10992 10991 10991 10991 10990 10990 10989 10989 10989 10988 10987 10986 10984 10983 10981 10979 10978 10976 10975 10973 10972 10970 10969 10968 10967 10966 10965 10964 10963 10962 10961 10959 10958 10956 10955 10954 10952 10951 10950 10949 10947 10945 10944 10942 10941 10940 10940 10939 10938 10937 10936 10934 10933 10932 10931 10931 10930
10980 10980 10981 10982 10983 10984 10986 10987 10988 10990 10990 10991 10992 10992 10992 10993 10993 10993 10993 10994 10994 10994 10994 10994 10994 10994 10994 10993 10993 10992 10991 10991 10991 10991 10990 10990 10990 10989 10988 10987 10985 10984 10982 10980 10979 10977 10976 10975 10973 10972 10970 10969 10968 10967 10966 10965 10965 10964 10963 10961 10959 10958 10956 10955 10954 10953 10952 10950 10949 10947 10945 10943 10942 10941 10940 10939 10938 10937 10936 10935 10934 10933 10932 10932 10931
10979 10980 10981 10982 10983 10984 10986 10988 10989 10990 10991 10992 10992 10992 10993 10993 10993 10994 10994 10994 10994 10995 10995 10995 10995 10995 10994 10994 10994 10993 10992 10992 10992 10991 10991 10991 10991 10990 10989 10988 10986 10985 10983 10981 10980 10979 10978 10977 10975 10974 10972 10971 10970 10969 10967 10967 10966 10965 10964 10962 10961 10959 10958 10957 10956 10954 10953 10952 10950 10948 10946 10944 10943 10942 10940 10939 10938 10937 10936 10935 10934 10933 10933 10932 10932
10978 10979 10980 10982 10983 10985 10987 10988 10989 10990 10992 10992 10993 10993 10993 10993 10994 10994 10995 10995 10995 10996 10996 10996 10996 10995 10995 10995 10995 10994 10994 10993 10993 10992 10992 10992 10991 10991 10990 10989 10987 10986 10984 10982 10981 10980 10979 10978 10977 10976 10974 10973 10972 10970 10969 10968 10967 10966 10965 10964 10962 10961 10960 10959 10957 10956 10955 10953 10952 10950 10947 10946 10944 10943 10942 10940 10939 10938 10936 10935 10934 10933 10933 10933 10933
10978 10978 10980 10981 10983 10985 10987 10989 10990 10991 10992 10992 10993 10993 10994 10994 10994 10995 10995 10996 10996 10996 10996 10996 10996 10996 10996 10996 10996 10995 10995 10994 10994 10994 10993 10993 10992 10991 10990 10989 10988 10986 10984 10983 10982 10981 10981 10980 10979 10978 10976 10975 10974 10972 10971 10970 10969 10968 10966 10965 10964 10962 10961 10960 10959 10957 10956 10955 10953 10951 10949 10947 10946 10945 10943 10942 10941 10939 10937 10935 10934 10933 10932 10932 10932
10977 10978 10979 10981 10983 10986 10987 10989 10990 10991 10992 10993 10993 10994 10994 10994 10995 10996 10996 10997 10997 10997 10997 10997 10997 10997 10997 10997 10997 10997 10996 10996 10995 10995 10994 10994 10993 10992 10991 10990 10989 10987 10986 10985 10984 10983 10982 10982 10981 10979 10978 10977 10975 10974 10973 10972 10971 10969 10968 10966 10965 10964 10962 10961 10960 10958 10957 10956 10955 10953 10951 10949 10948 10947 10945 10944 10942 10940 10938 10936 10935 10934 10932 10931 10931
10977 10978 10979 10981 10983 10986 10988 10989 10990 10991 10992 10993 10993 10994 10994 10995 10996 10996 10997 10997 10998 10998 10998 10998 10998 10998 10998 10998 10998 10998 10998 10997 10997 10996 10995 10995 10994 10994 10993 10992 10990 10989 10988 10987 10986 10985 10984 10983 10982 10981 10980 10978 10977 10976 10975 10974 10972 10971 10969 10968 10966 10965 10963 10962 10961 10959 10958 10957 10956 10954 10952 10950 10949 10948 10947 10945 10943 10941 10940 10938 10937 10935 10933 10931 10931
10977 10978 10980 10981 10983 10986 10988 10990 10990 10991 10992 10993 10993 10994 10995 10995 10996 10997 10998 10998 10998 10999 10999 10999 10999 10999 10999 10999 10999 10999 10999 10998 10998 10997 10996 10996 10996 10995 10995 10993 10992 10991 10991 10990 10988 10987 10986 10986 10985 10983 10982 10981 10979 10978 10977 10975 10974 10972 10971 10969 10968 10967 10965 10964 10962 10961 10960 10959 10957 10955 10953 10952 10950 10949 10948 10946 10944 10942 10940 10939 10938 10937 10935 10932 10931
10977 10978 10980 10981 10983 10986 10988 10990 10990 10991 10992 10993 10994 10994 10995 10995 10996 10997 10998 10999 10999 10999 11000 11000 11000 11000 11000 11000 11000 11000 11000 10999 10999 10998 10998 10998 10998 10997 10996 10995 10994 10993 10993 10992 10991 10990 10989 10988 10987 10985 10984 10983 10981 10979 10978 10976 10975 10973 10972 10971 10970 10969 10967 10966 10964 10963 10962 10960 10958 10956 10954 10953 10952 10950 10949 10947 10945 10944 10942 10940 10939 10937 10936 10934 10933
10977 10979 10980 10981 10983 10986 10988 10990 10990 10991 10992 10993 10994 10995 10995 10996 10997 10998 10999 10999 10999 11000 11000 11001 11001 11001 11001 11001 11001 11001 11001 11000 11000 11000 10999 10999 10999 10998 10997 10996 10996 10995 10994 10994 10993 10992 10991 10990 10989 10987 10986 10985 10983 10982 10980 10978 10976 10975 10974 10973 10972 10971 10970 10968 10967 10965 10963 10962 10960 10957 10956 10954 10953 10951 10950 10948 10947 10945 10943 10942 10940 10938 10936 10934 10934
10977 10978 10980 10981 10984 10986 10988 10990 10991 10991 10992 10993 10994 10995 10995 10996 10997 10998 10999 11000 11000 11001 11001 11002 11002 11002 11002 11002 11002 11002 11002 11001 11001 11001 11001 11000 11000 10999 10999 10998 10997 10997 10996 10995 10994 10994 10993 10992 10990 10989 10988 10987 10985 10984 10982 10980 10979 10978 10977 10976 10975 10973 10972 10970 10969 10967 10965 10963 10961 10959 10957 10956 10954 10953 10951 10949 10948 10946 10945 10943 10941 10939 10937 10935 10934
10976 10978 10980 10982 10983 10986 10988 10990 10991 10991 10992 10993 10994 10995 10996 10997 10998 10999 11000 11000 11000 11001 11002 11002 11002 11003 11003 11003 11003 11003 11003 11003 11002 11002 11001 11001 11001 11000 11000 10999 10998 10998 10997 10997 10996 10995 10995 10993 10992 10991 10990 10989 10987 10986 10984 10983 10982 10981 10979 10978 10977 10975 10974 10972 10971 10969 10967 10965 10963 10961 10959 10958 10956 10954 10953 10951 10949 10947 10946 10944 10942 10941 10938 10936 10935
10976 10978 10980 10982 10984 10986 10988 10990 10991 10991 10992 10993 10994 10995 10996 10997 10998 10999 11000 11000 11001 11001 11002 11002 11003 11003 11003 11003 11003 11003 11004 11003 11003 11003 11002 11002 11002 11001 11000 11000 10999 10999 10999 10998 10998 10997 10997 10995 10994 10993 10992 10990 10989 10987 10986 10985 10984 10983 10982 10980 10979 10977 10976 10975 10973 10971 10969 10967 10965 10963 10961 10959 10958 10956 10954 10953 10951 10949 10947 10945 10943 10942 10940 10938 10936
10976 10978 10980 10982 10984 10987 10989 10990 10991 10992 10992 10993 10994 10995 10996 10997 10998 10999 11000 11001 11001 11001 11002 11002 11003 11003 11004 11004 11004 11004 11004 11004 11004 11003 11003 11003 11003 11002 11001 11000 11000 11000 11000 11000 10999 10999 10998 10997 10996 10995 10993 10992 10991 10989 10988 10987 10986 10985 10984 10982 10981 10980 10978 10977 10975 10973 10971 10969 10967 10965 10963 10961 10959 10957 10956 10954 10952 10950 10948 10947 10945 10943 10942 10940 10938
10976 10978 10980 10982 10984 10987 10989 10990 10991 10992 10993 10993 10994 10995 10996 10997 10998 10999 11000 11001 11001 11002 11002 11002 11003 11004 11004 11004 11004 11004 11004 11004 11004 11004 11004 11004 11003 11002 11001 11001 11001 11001 11001 11001 11001 11000 11000 10998 10997 10996 10995 10994 10992 10991 10990 10989 10988 10986 10985 10984 10983 10982 10980 10979 10977 10976 10974 10971 10969 10966 10964 10962 10961 10959 10957 10956 10954 10952 10950 10948 10946 10944 10943 10941 10939
10975 10977 10979 10982 10984 10986 10988 10990 10991 10992 10993 10994 10995 10995 10996 10997 10998 10999 11000 11001 11001 11002 11002 11003 11003 11004 11004 11004 11005 11005 11005 11005 11004 11004 11004 11004 11003 11002 11002 11002 11002 11002 11002 11002 11001 11001 11001 11000 10999 10998 10996 10995 10994 10993 10992 10991 10989 10987 10986 10985 10985 10984 10982 10981 10979 10978 10976 10973 10971 10969 10966 10964 10962 10961 10959 10957 10955 10953 10951 10949 10947 10945 10944 10942 10940
10975 10977 10979 10981 10983 10986 10988 10990 10992 10992 10993 10994 10995 10996 10996 10997 10998 10999 11000 11001 11001 11002 11002 11003 11003 11004 11004 11004 11005 11005 11005 11005 11005 11005 11004 11004 11003 11003 11002 11002 11002 11003 11003 11002 11002 11001 11001 11000 10999 10998 10997 10996 10995 10994 10993 10991 10990 10988 10987 10986 10986 10985 10984 10983 10981 10980 10977 10975 10973 10970 10968 10966 10964 10962 10960 10958 10955 10953 10951 10949 10948 10946 10944 10943 10941
10976 10977 10979 10981 10983 10985 10987 10990 10991 10992 10993 10994 10995 10996 10996 10997 10998 10999 11000 11001 11001 11002 11002 11003 11003 11004 11004 11005 11005 11005 11005 11005 11005 11005 11005 11004 11004 11003 11003 11003 11003 11003 11003 11003 11002 11001 11000 11000 10999 10999 10998 10997 10995 10994 10993 10992 10991 10990 10988 10988 10987 10986 10985 10984 10983 10981 10978 10976 10974 10972 10970 10968 10966 10963 10961 10958 10956 10954 10952 10950 10948 10946 10945 10943 10941
10975 10978 10980 10981 10983 10985 10986 10989 10991 10992 10993 10994 10995 10996 10996 10997 10998 10999 11000 11001 11002 11002 11002 11003 11004 11004 11004 11005 11005 11005 11005 11005 11005 11005 11005 11005 11005 11004 11004 11003 11003 11003 11003 11003 11002 11001 11000 11000 10999 10999 10998 10997 10996 10995 10994 10992 10991 10990 10989 10988 10987 10986 10985 10984 10983 10981 10979 10977 10976 10974 10972 10969 10967 10964 10962 10959 10957 10955 10952 10950 10948 10946 10944 10943 10941
10974 10977 10979 10981 10982 10984 10986 10988 10990 10992 10993 10995 10995 10996 10996 10997 10998 10999 11000 11001 11002 11002 11003 11003 11004 11004 11004 11005 11005 11005 11005 11005 11005 11005 11005 11005 11005 11005 11004 11004 11004 11004 11004 11003 11002 11001 11000 11000 10999 10998 10998 10997 10996 10995 10994 10993 10992 10991 10990 10988 10987 10986 10984 10983 10982 10980 10979 10977 10976 10974 10972 10970 10968 10965 10962 10960 10958 10955 10953 10950 10947 10945 10944 10942 10940
10973 10975 10977 10980 10982 10984 10986 10988 10990 10992 10993 10994 10995 10996 10997 10997 10998 10999 11000 11001 11002 11002 11003 11003 11004 11004 11005 11005 11005 11005 11005 11005 11005 11005 11006 11005 11005 11005 11005 11005 11005 11005 11004 11003 11002 11001 11000 10999 10998 10998 10997 10997 10996 10995 10994 10993 10992 10991 10990 10988 10987 10985 10984 10982 10981 10979 10977 10976 10975 10973 10972 10969 10967 10965 10962 10960 10957 10955 10952 10950 10947 10945 10943 10941 10939
10971 10974 10977 10979 10981 10983 10985 10987 10989 10990 10992 10994 10995 10996 10997 10997 10998 10999 10999 11000 11001 11002 11003 11003 11004 11004 11005 11005 11005 11005 11005 11005 11005 11005 11005 11005 11005 11005 11005 11005 11005 11005 11004 11003 11002 11001 10999 10999 10998 10997 10997 10996 10995 10994 10993 10992 10991 10990 10989 10988 10986 10984 10982 10981 10979 10978 10976 10975 10974 10972 10971 10969 10966 10964 10961 10959 10957 10954 10952 10949 10947 10945 10943 10940 10938
10970 10973 10976 10978 10980 10981 10983 10985 10987 10989 10991 10992 10994 10995 10996 10997 10998 10999 10999 11000 11001 11001 11002 11003 11004 11004 11004 11005 11005 11005 11005 11005 11005 11005 11005 11005 11005 11005 11005 11005 11005 11005 11004 11003 11002 11001 10999 10998 10998 10997 10996 10995 10994 10994 10993 10992 10991 10990 10989 10987 10985 10983 10981 10979 10977 10976 10974 10973 10972 10970 10969 10968 10965 10963 10960 10957 10955 10953 10951 10949 10947 10944 10942 10940 10938
10968 10971 10974 10976 10978 10980 10982 10984 10986 10987 10990 10992 10993 10995 10996 10997 10998 10999 10999 11000 11000 11001 11001 11002 11003 11004 11004 11004 11004 11005 11005 11005 11005 11005 11005 11005 11005 11005 11005 11005 11005 11004 11004 11003 11001 11000 10999 10998 10997 10997 10996 10995 10994 10993 10993 10992 10991 10990 10988 10986 10984 10982 10980 10978 10976 10974 10972 10971 10970 10969 10968 10966 10964 10962 10959 10956 10954 10951 10949 10947 10945 10943 10941 10939 10937